Content
SEND FEEDBACK

Daily
Averages
Monthly
Summary
United States of America

POTTS JUNCTION, GUAM


Home > North America > United States > Guam
Elevation: 360 feet     Latitude: 13 33N     Longitude: 144 50E

WEATHER
 
SELECT A DAY
Number of Records: 208,997;   Date Range: 1/1/95 - 7/26/14
 
SHARE

PRINT THIS DATA

[ ← Previous Day ]
WEATHER ALMANAC - FEBRUARY 3, 2014
[ Next Day → ]
[ °C ]   °F
Weather ElementAverageHighLow
Temperature81.4 °F87.1 °F (1:54 pm)75 °F (6:54 am)
Dewpoint73.2 °F75 °F (10:54 pm)71.6 °F (5:21 pm)
Humidity76.7 %96 % (6:54 am)63 % (1:54 pm)
Barometer29.79 in29.83 in (8:54 am)29.75 in (2:54 pm)
Wind Speed11.6 mph16.1 mph (10:54 am)
Wind Gust21.9 mph (9:54 am)
Weather ElementAverage
Visibility10 mi
Wind DirectionENE (64.1 °)

Weather ElementTotal
Precipitation0.06 in
Cooling Degree Days16.1 (Base 65)
Growing Degree Days31.1 (Base 50)
Averaged from 27 records on February 3, 2014
WEATHER CONDITIONS BREAKOUT
WIND DIRECTION BREAKOUT
WEATHER BY HOUR - FEBRUARY 3, 2014
[ °C ]   °F
Local TimeTemperatureDewpointHumidityBarometerVisibilityWind DirectionWind SpeedGust SpeedPrecipitationEventsConditions
1:54 AM79.0 °F73.0 °F82 %29.79 in10.0 miENE (70°)10.4 mphClear
2:54 AM78.1 °F73.9 °F87 %29.78 in10.0 miEast (80°)12.7 mph0.00 inPartly Cloudy
3:54 AM77.0 °F73.9 °F90 %29.77 in10.0 miEast (80°)11.5 mph0.00 inMostly Cloudy
4:54 AM77.0 °F73.9 °F90 %29.77 in10.0 miENE (60°)10.4 mphMostly Cloudy
5:54 AM77.0 °F72.0 °F84 %29.79 in10.0 miENE (70°)11.5 mphScattered Clouds
6:54 AM75.0 °F73.9 °F96 %29.81 in10.0 miNorth (10°)6.9 mph0.06 inRainLight Rain
7:54 AM78.1 °F72.0 °F81 %29.81 in10.0 miEast (80°)10.4 mph0.00 inClear
8:54 AM81.0 °F73.0 °F77 %29.83 in10.0 miEast (80°)13.8 mph19.6 mphPartly Cloudy
9:54 AM82.9 °F73.0 °F72 %29.82 in10.0 miEast (90°)13.8 mph21.9 mphPartly Cloudy
10:54 AM84.0 °F72.0 °F67 %29.82 in10.0 miEast (90°)16.1 mph21.9 mphPartly Cloudy
11:54 AM86.0 °F73.0 °F65 %29.81 in10.0 miEast (80°)15.0 mphPartly Cloudy
12:54 PM86.0 °F73.0 °F65 %29.80 in10.0 miEast (90°)16.1 mph21.9 mphScattered Clouds
1:54 PM87.1 °F73.0 °F63 %29.77 in10.0 miNE (40°)13.8 mphScattered Clouds
2:54 PM84.9 °F72.0 °F65 %29.75 in10.0 miNE (40°)13.8 mphMostly Cloudy
3:54 PM84.0 °F72.0 °F67 %29.75 in10.0 miENE (70°)12.7 mphMostly Cloudy
4:19 PM84.2 °F73.4 °F70 %29.78 in10.0 miENE (60°)10.4 mphMostly Cloudy
4:26 PM84.2 °F73.4 °F70 %29.78 in10.0 miNE (50°)13.8 mphScattered Clouds
4:54 PM84.9 °F73.0 °F67 %29.76 in10.0 miENE (60°)10.4 mphPartly Cloudy
5:21 PM82.4 °F71.6 °F70 %29.80 in10.0 miENE (60°)12.7 mphMostly Cloudy
5:31 PM82.4 °F73.4 °F74 %29.80 in10.0 miENE (60°)10.4 mphOvercast
5:54 PM82.0 °F73.0 °F74 %29.77 in10.0 miENE (60°)10.4 mphOvercast
6:54 PM81.0 °F73.9 °F79 %29.79 in10.0 miENE (60°)8.1 mphOvercast
7:54 PM80.1 °F73.9 °F81 %29.80 in10.0 miENE (60°)10.4 mphPartly Cloudy
8:54 PM80.1 °F73.9 °F81 %29.81 in10.0 miNE (50°)8.1 mphPartly Cloudy
9:54 PM80.1 °F73.9 °F81 %29.82 in10.0 miENE (60°)10.4 mphPartly Cloudy
10:54 PM80.1 °F75.0 °F85 %29.82 in10.0 miENE (60°)9.2 mphPartly Cloudy
11:54 PM79.0 °F75.0 °F88 %29.81 in10.0 miENE (60°)9.2 mphPartly Cloudy
Hourly data recorded from PGUM, located miles away from Potts Junction, Guam







STORIES FROM OUR PARTNERS